STARLINK-32196 (60430 NORAD) Tracking and Keplerian Element Data

This shows tracking and keplerian element data for the satellite.

Feedback or suggestion? Click here.




ElementValue
Catalog60430
NameSTARLINK-32196
Epoch Orbit1078
Epoch Day286.80951688
Epoch Year2024
RAAN79.4916
Inclination53.1622
Eccentricity0.0001004
Argument of Perigee123.3408
Mean Anonmoly236.7689
Mean Motion15.30202045
Decay Rate-5.3E-07
L11 60430U 24144F 24286.80951688 -.00000053 00000+0 10337-4 0 9991
L22 60430 53.1622 79.4916 0001004 123.3408 236.7689 15.30202045 10785



Live tracking and technical data element details for STARLINK-32196 (NORAD 60430). STARLINK-32196 can be tracked NOW for your location showing map with azimuth and elevation plus other details from your city location.







IsCatalogInMostPopularTable: catalog: 60430, numindb: 9
Update: records affected: 1



GetName: 60430 STARLINK-32196

Hit Count: updated at: Tue, 03 Dec 2024 02:23:24 GMT